Find SBIRS GEO-5

NORAD ID: 48618 Int'l Des: 2021-042 Owner: USSF Country: US operational
HEOCIRCULARGSO

实时位置

正在加载3D地球...

关于 SBIRS GEO-5

正在加载描述...

即将过境

Passes for default location (London). Set your location on the main map for personalized predictions.

高度历史

Loading altitude history...

两行轨道根数

1 48618U 21042A 26106.71691834 -.00000270 00000-0 00000-0 0 9990
2 48618 5.1831 328.6510 0001194 62.6329 165.4617 1.00271373 18154
Epoch: Apr 16, 2026 • Age: 19 hours

当前状态

高度 35786.0 km
速度 3.07 km/s
星下点 2.35°N, 93.9°E
发射日期 May 18, 2021
运行时间 4.9 years
类型 military

技术详情

分类 Payload
质量 4500.00 kg
干质量 2500.00 kg
总质量 4500.00 kg
长度 6.00 m
直径 2.50 m
跨度 25.00 m
形状 Box + 2 Pan
制造商 LMSS
平台类型 A2100
阶段状态 In Orbit
所有者/国家 USSF/US

Most Searched